| time (UTC) | temp F | wind direction | speed MPH | gust MPH | rain 1hr in | rain 24hr in | rain mn in | humidity % | barometer mb |
| 20260509023050 | 51 | 346 | 1.0 | 2.0 | 0.00 | 0.00 | 0.00 | 76 | 1020.0 |
| 20260509021553 | 51 | 0 | 0.0 | 1.0 | 0.00 | 0.00 | 0.00 | 76 | 1020.1 |
| 20260509020105 | 51 | 0 | 0.0 | 4.0 | 0.00 | 0.00 | 0.00 | 76 | 1019.9 |
| 20260509014550 | 51 | 11 | 1.0 | 3.0 | 0.00 | 0.00 | 0.00 | 76 | 1020.0 |
| 20260509013056 | 51 | 0 | 0.0 | 2.0 | 0.00 | 0.00 | 0.00 | 75 | 1020.0 |
| 20260509011558 | 52 | 200 | 0.0 | 1.0 | 0.00 | 0.00 | 0.00 | 74 | 1020.0 |
| 20260509010049 | 52 | 0 | 0.0 | 1.0 | 0.00 | 0.00 | 0.00 | 74 | 1020.0 |
| 20260509004552 | 52 | 330 | 2.0 | 4.0 | 0.00 | 0.00 | 0.00 | 74 | 1019.9 |
| 20260509003056 | 52 | 0 | 0.0 | 2.0 | 0.00 | 0.00 | 0.00 | 72 | 1020.0 |
| 20260509001551 | 53 | 0 | 0.0 | 0.0 | 0.00 | 0.00 | 0.00 | 71 | 1019.9 |
| 20260509000051 | 53 | 0 | 0.0 | 4.0 | 0.00 | 0.00 | 0.00 | 71 | 1019.8 |
| 20260508234550 | 53 | 322 | 2.0 | 5.0 | 0.00 | 0.00 | 0.00 | 70 | 1019.7 |
| 20260508233058 | 52 | 355 | 3.0 | 5.0 | 0.00 | 0.00 | 0.00 | 68 | 1019.7 |
| 20260508231556 | 52 | 330 | 3.0 | 5.0 | 0.00 | 0.00 | 0.00 | 69 | 1019.8 |
| 20260508230055 | 53 | 0 | 0.0 | 5.0 | 0.00 | 0.00 | 0.00 | 70 | 1019.8 |
| 20260508224555 | 53 | 360 | 4.0 | 5.0 | 0.00 | 0.00 | 0.00 | 70 | 1019.7 |
| 20260508223053 | 52 | 21 | 1.0 | 3.0 | 0.00 | 0.00 | 0.00 | 72 | 1019.9 |
| 20260508221555 | 52 | 312 | 0.0 | 1.0 | 0.00 | 0.00 | 0.00 | 73 | 1019.9 |
| 20260508214554 | 53 | 0 | 1.0 | 3.0 | 0.00 | 0.00 | 0.00 | 73 | 1019.8 |
| 20260508213100 | 53 | 0 | 0.0 | 1.0 | 0.00 | 0.00 | 0.00 | 73 | 1019.7 |
| 20260508211556 | 53 | 0 | 0.0 | 5.0 | 0.00 | 0.00 | 0.00 | 72 | 1019.6 |
| 20260508210054 | 53 | 355 | 3.0 | 6.0 | 0.00 | 0.00 | 0.00 | 73 | 1019.5 |
| 20260508204554 | 53 | 355 | 0.0 | 3.0 | 0.00 | 0.00 | 0.00 | 71 | 1019.6 |
| 20260508203054 | 54 | 0 | 0.0 | 5.0 | 0.00 | 0.00 | 0.00 | 69 | 1019.6 |
| 20260508201553 | 54 | 349 | 3.0 | 5.0 | 0.00 | 0.00 | 0.00 | 68 | 1019.6 |
| 20260508200053 | 54 | 355 | 3.0 | 5.0 | 0.00 | 0.00 | 0.00 | 67 | 1019.6 |
| 20260508194604 | 54 | 25 | 3.0 | 7.0 | 0.00 | 0.00 | 0.00 | 67 | 1019.4 |
| 20260508193114 | 54 | 333 | 4.0 | 7.0 | 0.00 | 0.00 | 0.00 | 66 | 1019.2 |
| 20260508191604 | 54 | 24 | 3.0 | 9.0 | 0.00 | 0.00 | 0.00 | 66 | 1019.1 |
| 20260508190109 | 54 | 336 | 4.0 | 6.0 | 0.00 | 0.00 | 0.00 | 70 | 1019.0 |
| 20260508184555 | 55 | 344 | 4.0 | 6.0 | 0.00 | 0.00 | 0.00 | 75 | 1018.8 |
| 20260508183058 | 56 | 224 | 3.0 | 5.0 | 0.00 | 0.00 | 0.00 | 75 | 1018.6 |
| 20260508181558 | 59 | 0 | 0.0 | 2.0 | 0.00 | 0.00 | 0.00 | 72 | 1018.6 |
| 20260508174553 | 61 | 0 | 0.0 | 1.0 | 0.00 | 0.00 | 0.00 | 69 | 1018.3 |
| 20260508173055 | 61 | 0 | 0.0 | 3.0 | 0.00 | 0.00 | 0.00 | 69 | 1018.2 |
| 20260508171555 | 61 | 112 | 0.0 | 3.0 | 0.00 | 0.00 | 0.00 | 69 | 1018.2 |
| 20260508170059 | 61 | 0 | 0.0 | 3.0 | 0.00 | 0.00 | 0.00 | 69 | 1018.2 |
| 20260508164556 | 61 | 0 | 1.0 | 3.0 | 0.00 | 0.00 | 0.00 | 70 | 1018.0 |
| 20260508163103 | 61 | 123 | 1.0 | 5.0 | 0.00 | 0.00 | 0.00 | 70 | 1018.1 |
| 20260508161558 | 62 | 0 | 0.0 | 7.0 | 0.00 | 0.00 | 0.00 | 69 | 1018.0 |
| 20260508160051 | 62 | 20 | 2.0 | 6.0 | 0.00 | 0.00 | 0.00 | 69 | 1017.9 |
| 20260508154555 | 62 | 282 | 2.0 | 10.0 | 0.00 | 0.00 | 0.00 | 68 | 1017.8 |
| 20260508153104 | 62 | 115 | 0.0 | 4.0 | 0.00 | 0.00 | 0.00 | 67 | 1017.7 |
| 20260508151551 | 63 | 26 | 1.0 | 6.0 | 0.00 | 0.00 | 0.00 | 66 | 1017.6 |
| 20260508150054 | 63 | 126 | 0.0 | 4.0 | 0.00 | 0.00 | 0.00 | 66 | 1017.8 |
| 20260508144553 | 64 | 157 | 1.0 | 5.0 | 0.00 | 0.00 | 0.00 | 64 | 1017.9 |
| 20260508143115 | 64 | 143 | 1.0 | 9.0 | 0.00 | 0.00 | 0.00 | 62 | 1017.9 |
| 20260508141558 | 64 | 341 | 1.0 | 6.0 | 0.00 | 0.00 | 0.00 | 62 | 1017.9 |
| 20260508134553 | 63 | 99 | 3.0 | 7.0 | 0.00 | 0.00 | 0.00 | 62 | 1018.0 |
| 20260508133057 | 63 | 202 | 2.0 | 9.0 | 0.00 | 0.00 | 0.00 | 62 | 1018.0 |
| 20260508131550 | 63 | 104 | 2.0 | 7.0 | 0.00 | 0.00 | 0.00 | 64 | 1018.1 |
| 20260508130051 | 63 | 43 | 1.0 | 5.0 | 0.00 | 0.00 | 0.00 | 63 | 1018.1 |
| 20260508124551 | 63 | 100 | 2.0 | 8.0 | 0.00 | 0.00 | 0.00 | 62 | 1018.1 |
| 20260508123055 | 63 | 0 | 1.0 | 8.0 | 0.00 | 0.00 | 0.00 | 61 | 1018.2 |
| 20260508121554 | 63 | 0 | 3.0 | 10.0 | 0.00 | 0.00 | 0.00 | 61 | 1018.3 |
| 20260508120101 | 63 | 65 | 1.0 | 8.0 | 0.00 | 0.00 | 0.00 | 62 | 1018.3 |
| 20260508114603 | 62 | 360 | 2.0 | 8.0 | 0.00 | 0.00 | 0.00 | 62 | 1018.4 |
| 20260508113104 | 62 | 338 | 1.0 | 9.0 | 0.00 | 0.00 | 0.00 | 63 | 1018.3 |
| 20260508111601 | 62 | 92 | 2.0 | 8.0 | 0.00 | 0.00 | 0.00 | 63 | 1018.4 |
| 20260508104554 | 62 | 107 | 1.0 | 10.0 | 0.00 | 0.00 | 0.00 | 63 | 1018.4 |
| 20260508103057 | 62 | 0 | 0.0 | 9.0 | 0.00 | 0.00 | 0.00 | 64 | 1018.6 |
| 20260508101555 | 62 | 85 | 0.0 | 9.0 | 0.00 | 0.00 | 0.00 | 61 | 1018.5 |
| 20260508100123 | 61 | 327 | 6.0 | 12.0 | 0.00 | 0.00 | 0.00 | 63 | 1018.6 |
| 20260508094553 | 61 | 92 | 1.0 | 10.0 | 0.00 | 0.00 | 0.00 | 66 | 1018.5 |
| 20260508093053 | 60 | 89 | 2.0 | 8.0 | 0.00 | 0.00 | 0.00 | 67 | 1018.5 |
| 20260508091607 | 60 | 334 | 0.0 | 5.0 | 0.00 | 0.00 | 0.00 | 72 | 1018.5 |
| 20260508090052 | 59 | 0 | 0.0 | 6.0 | 0.00 | 0.00 | 0.00 | 73 | 1018.5 |
| 20260508084552 | 59 | 72 | 0.0 | 3.0 | 0.00 | 0.00 | 0.00 | 74 | 1018.5 |
| 20260508083052 | 58 | 0 | 3.0 | 9.0 | 0.00 | 0.00 | 0.00 | 73 | 1018.5 |
| 20260508081611 | 59 | 331 | 1.0 | 12.0 | 0.00 | 0.00 | 0.00 | 74 | 1018.4 |
| 20260508074556 | 57 | 185 | 2.0 | 8.0 | 0.00 | 0.00 | 0.00 | 78 | 1018.3 |
| 20260508073052 | 59 | 38 | 3.0 | 8.0 | 0.00 | 0.00 | 0.00 | 72 | 1018.1 |
| 20260508071553 | 59 | 125 | 0.0 | 4.0 | 0.00 | 0.00 | 0.00 | 72 | 1017.7 |
| 20260508070059 | 58 | 0 | 1.0 | 3.0 | 0.00 | 0.00 | 0.00 | 73 | 1017.8 |
| 20260508064558 | 56 | 0 | 0.0 | 4.0 | 0.00 | 0.00 | 0.00 | 77 | 1017.8 |
| 20260508063059 | 55 | 0 | 0.0 | 4.0 | 0.00 | 0.00 | 0.00 | 79 | 1017.7 |
| 20260508061604 | 54 | 0 | 0.0 | 3.0 | 0.00 | 0.00 | 0.00 | 79 | 1017.5 |
| 20260508060111 | 53 | 0 | 0.0 | 1.0 | 0.00 | 0.00 | 0.00 | 79 | 1017.5 |
| 20260508054638 | 53 | 0 | 0.0 | 1.0 | 0.00 | 0.00 | 0.00 | 80 | 1017.4 |
| 20260508053055 | 53 | 165 | 1.0 | 4.0 | 0.00 | 0.00 | 0.00 | 79 | 1017.2 |
| 20260508051550 | 53 | 0 | 0.0 | 1.0 | 0.00 | 0.00 | 0.00 | 79 | 1017.2 |
| 20260508050053 | 53 | 0 | 0.0 | 1.0 | 0.00 | 0.00 | 0.00 | 79 | 1017.0 |
| 20260508044550 | 52 | 0 | 0.0 | 3.0 | 0.00 | 0.00 | 0.00 | 79 | 1017.0 |
| 20260508043058 | 51 | 0 | 0.0 | 3.0 | 0.00 | 0.00 | 0.00 | 79 | 1016.8 |
| 20260508041553 | 51 | 0 | 0.0 | 0.0 | 0.00 | 0.00 | 0.00 | 80 | 1016.7 |
| 20260508040052 | 51 | 0 | 0.0 | 1.0 | 0.00 | 0.00 | 0.00 | 80 | 1016.5 |
| 20260508034554 | 51 | 0 | 0.0 | 0.0 | 0.00 | 0.00 | 0.00 | 81 | 1016.4 |
| 20260508033055 | 51 | 17 | 0.0 | 1.0 | 0.00 | 0.00 | 0.00 | 79 | 1016.4 |
| 20260508031559 | 51 | 0 | 0.0 | 1.0 | 0.00 | 0.00 | 0.00 | 78 | 1016.4 |
| 20260508030059 | 51 | 92 | 0.0 | 1.0 | 0.00 | 0.00 | 0.00 | 76 | 1016.4 |
| 20260508024603 | 52 | 0 | 0.0 | 2.0 | 0.00 | 0.00 | 0.00 | 76 | 1016.4 |